Time,TemperatureF,DewpointF,PressureIn,WindDirection,WindDirectionDegrees,WindSpeedMPH,WindSpeedGustMPH,Humidity,HourlyPrecipIn,Conditions,Clouds,dailyrainin,SolarRadiationWatts/m^2,SoftwareType,DateUTC
2013-10-03 00:04:00,54.0,19.8,29.57,North,-999,-999.0,-999.0,5,0.00,,,-99.99,0.0,Linux-Irox,2013-10-03 07:04:00,
2013-10-03 00:14:00,53.6,19.4,29.57,North,-999,-999.0,-999.0,5,0.00,,,-99.99,0.0,Linux-Irox,2013-10-03 07:14:00,
2013-10-03 00:24:00,53.4,19.2,29.59,North,-999,-999.0,-999.0,5,0.00,,,-99.99,0.0,Linux-Irox,2013-10-03 07:24:00,
2013-10-03 00:34:00,53.2,19.0,29.59,North,-999,-999.0,-999.0,5,0.00,,,-99.99,0.0,Linux-Irox,2013-10-03 07:34:00,
2013-10-03 00:44:00,52.9,18.7,29.56,North,-999,-999.0,-999.0,5,0.00,,,-99.99,0.0,Linux-Irox,2013-10-03 07:44:00,
2013-10-03 00:54:00,52.7,18.5,29.56,North,-999,-999.0,-999.0,5,0.00,,,-99.99,0.0,Linux-Irox,2013-10-03 07:54:00,
2013-10-03 01:04:00,52.5,18.3,29.58,North,-999,-999.0,-999.0,5,0.00,,,-99.99,0.0,Linux-Irox,2013-10-03 08:04:00,
2013-10-03 01:14:00,52.2,18.0,29.58,North,-999,-999.0,-999.0,5,0.00,,,-99.99,0.0,Linux-Irox,2013-10-03 08:14:00,
2013-10-03 01:24:00,52.0,17.8,29.57,North,-999,-999.0,-999.0,5,0.00,,,-99.99,0.0,Linux-Irox,2013-10-03 08:24:00,
2013-10-03 01:34:00,52.0,17.8,29.57,North,-999,-999.0,-999.0,5,0.00,,,-99.99,0.0,Linux-Irox,2013-10-03 08:34:00,
2013-10-03 01:44:00,51.8,17.6,29.58,North,-999,-999.0,-999.0,5,0.00,,,-99.99,0.0,Linux-Irox,2013-10-03 08:44:00,
2013-10-03 01:54:00,51.6,17.8,29.58,North,-999,-999.0,-999.0,6,0.00,,,-99.99,0.0,Linux-Irox,2013-10-03 08:54:00,
2013-10-03 02:04:00,51.6,17.8,29.56,North,-999,-999.0,-999.0,6,0.00,,,-99.99,0.0,Linux-Irox,2013-10-03 09:04:00,
2013-10-03 02:14:00,51.1,17.2,29.56,North,-999,-999.0,-999.0,6,0.00,,,-99.99,0.0,Linux-Irox,2013-10-03 09:14:00,
2013-10-03 02:24:00,51.1,17.2,29.59,North,-999,-999.0,-999.0,6,0.00,,,-99.99,0.0,Linux-Irox,2013-10-03 09:24:00,
2013-10-03 02:34:00,51.3,17.4,29.59,North,-999,-999.0,-999.0,6,0.00,,,-99.99,0.0,Linux-Irox,2013-10-03 09:34:00,
2013-10-03 02:44:00,51.1,17.2,29.58,North,-999,-999.0,-999.0,6,0.00,,,-99.99,0.0,Linux-Irox,2013-10-03 09:44:00,
2013-10-03 02:54:00,50.9,17.1,29.58,North,-999,-999.0,-999.0,6,0.00,,,-99.99,0.0,Linux-Irox,2013-10-03 09:54:00,
2013-10-03 03:04:00,50.4,16.5,29.59,North,-999,-999.0,-999.0,6,0.00,,,-99.99,0.0,Linux-Irox,2013-10-03 10:04:00,
2013-10-03 03:14:00,50.0,17.2,29.59,North,-999,-999.0,-999.0,9,0.00,,,-99.99,0.0,Linux-Irox,2013-10-03 10:14:00,
2013-10-03 03:24:00,50.0,17.2,29.57,North,-999,-999.0,-999.0,9,0.00,,,-99.99,0.0,Linux-Irox,2013-10-03 10:24:00,
2013-10-03 03:34:00,49.6,17.2,29.57,North,-999,-999.0,-999.0,10,0.00,,,-99.99,0.0,Linux-Irox,2013-10-03 10:34:00,
2013-10-03 03:44:00,49.3,16.9,29.57,North,-999,-999.0,-999.0,10,0.00,,,-99.99,0.0,Linux-Irox,2013-10-03 10:44:00,
2013-10-03 03:54:00,49.1,16.7,29.57,North,-999,-999.0,-999.0,10,0.00,,,-99.99,0.0,Linux-Irox,2013-10-03 10:54:00,
2013-10-03 04:04:00,49.1,16.7,29.57,North,-999,-999.0,-999.0,10,0.00,,,-99.99,0.0,Linux-Irox,2013-10-03 11:04:00,
2013-10-03 04:14:00,49.3,16.9,29.57,North,-999,-999.0,-999.0,10,0.00,,,-99.99,0.0,Linux-Irox,2013-10-03 11:14:00,
2013-10-03 04:24:00,48.9,16.5,29.56,North,-999,-999.0,-999.0,10,0.00,,,-99.99,0.0,Linux-Irox,2013-10-03 11:24:00,
2013-10-03 04:34:00,48.6,16.2,29.56,North,-999,-999.0,-999.0,10,0.00,,,-99.99,0.0,Linux-Irox,2013-10-03 11:34:00,
2013-10-03 04:44:00,48.4,16.0,29.57,North,-999,-999.0,-999.0,10,0.00,,,-99.99,0.0,Linux-Irox,2013-10-03 11:44:00,
2013-10-03 04:54:00,48.4,16.0,29.57,North,-999,-999.0,-999.0,10,0.00,,,-99.99,0.0,Linux-Irox,2013-10-03 11:54:00,
2013-10-03 05:04:00,48.2,15.8,29.58,North,-999,-999.0,-999.0,10,0.00,,,-99.99,0.0,Linux-Irox,2013-10-03 12:04:00,
2013-10-03 05:14:00,47.7,15.3,29.58,North,-999,-999.0,-999.0,10,0.00,,,-99.99,0.0,Linux-Irox,2013-10-03 12:14:00,
2013-10-03 05:24:00,47.7,15.3,29.56,North,-999,-999.0,-999.0,10,0.00,,,-99.99,0.0,Linux-Irox,2013-10-03 12:24:00,
2013-10-03 05:34:00,47.1,14.7,29.56,North,-999,-999.0,-999.0,10,0.00,,,-99.99,0.0,Linux-Irox,2013-10-03 12:34:00,
2013-10-03 05:44:00,46.9,14.5,29.56,North,-999,-999.0,-999.0,10,0.00,,,-99.99,0.0,Linux-Irox,2013-10-03 12:44:00,
2013-10-03 05:54:00,47.1,14.7,29.56,North,-999,-999.0,-999.0,10,0.00,,,-99.99,0.0,Linux-Irox,2013-10-03 12:54:00,
2013-10-03 06:04:00,47.1,14.7,29.57,North,-999,-999.0,-999.0,10,0.00,,,-99.99,0.0,Linux-Irox,2013-10-03 13:04:00,
2013-10-03 06:14:00,46.6,14.2,29.57,North,-999,-999.0,-999.0,10,0.00,,,-99.99,0.0,Linux-Irox,2013-10-03 13:14:00,
2013-10-03 06:16:00,46.4,14.0,29.58,North,-999,-999.0,-999.0,10,0.00,,,-99.99,0.0,Linux-Irox,2013-10-03 13:16:00,
2013-10-03 06:24:00,46.0,14.0,29.58,North,-999,-999.0,-999.0,11,0.00,,,-99.99,0.0,Linux-Irox,2013-10-03 13:24:00,
2013-10-03 06:31:00,46.0,14.0,29.58,North,-999,-999.0,-999.0,11,0.00,,,-99.99,0.0,Linux-Irox,2013-10-03 13:31:00,
2013-10-03 06:34:00,45.9,13.8,29.58,North,-999,-999.0,-999.0,11,0.00,,,-99.99,0.0,Linux-Irox,2013-10-03 13:34:00,
2013-10-03 06:44:00,45.7,13.6,29.58,North,-999,-999.0,-999.0,11,0.00,,,-99.99,0.0,Linux-Irox,2013-10-03 13:44:00,
2013-10-03 06:46:00,45.7,13.6,29.58,North,-999,-999.0,-999.0,11,0.00,,,-99.99,0.0,Linux-Irox,2013-10-03 13:46:00,
2013-10-03 06:54:00,45.3,13.3,29.58,North,-999,-999.0,-999.0,11,0.00,,,-99.99,0.0,Linux-Irox,2013-10-03 13:54:00,
2013-10-03 07:01:00,45.3,13.3,29.58,North,-999,-999.0,-999.0,11,0.00,,,-99.99,0.0,Linux-Irox,2013-10-03 14:01:00,
2013-10-03 07:04:00,45.5,13.5,29.58,North,-999,-999.0,-999.0,11,0.00,,,-99.99,0.0,Linux-Irox,2013-10-03 14:04:00,
2013-10-03 07:14:00,45.3,13.3,29.58,North,-999,-999.0,-999.0,11,0.00,,,-99.99,0.0,Linux-Irox,2013-10-03 14:14:00,
2013-10-03 07:16:00,45.3,13.3,29.58,North,-999,-999.0,-999.0,11,0.00,,,-99.99,0.0,Linux-Irox,2013-10-03 14:16:00,
2013-10-03 07:24:00,45.7,13.6,29.58,North,-999,-999.0,-999.0,11,0.00,,,-99.99,0.0,Linux-Irox,2013-10-03 14:24:00,
2013-10-03 07:31:00,45.7,13.6,29.58,North,-999,-999.0,-999.0,11,0.00,,,-99.99,0.0,Linux-Irox,2013-10-03 14:31:00,
2013-10-03 07:34:00,45.9,13.8,29.58,North,-999,-999.0,-999.0,11,0.00,,,-99.99,0.0,Linux-Irox,2013-10-03 14:34:00,
2013-10-03 07:44:00,46.8,14.4,29.60,North,-999,-999.0,-999.0,10,0.00,,,-99.99,0.0,Linux-Irox,2013-10-03 14:44:00,
2013-10-03 07:46:00,47.1,14.7,29.60,North,-999,-999.0,-999.0,10,0.00,,,-99.99,0.0,Linux-Irox,2013-10-03 14:46:00,
2013-10-03 07:54:00,48.6,16.2,29.60,North,-999,-999.0,-999.0,10,0.00,,,-99.99,0.0,Linux-Irox,2013-10-03 14:54:00,
2013-10-03 08:01:00,49.5,17.1,29.61,North,-999,-999.0,-999.0,10,0.00,,,-99.99,0.0,Linux-Irox,2013-10-03 15:01:00,
2013-10-03 08:04:00,50.2,17.4,29.61,North,-999,-999.0,-999.0,9,0.00,,,-99.99,0.0,Linux-Irox,2013-10-03 15:04:00,
2013-10-03 08:09:00,50.2,17.4,29.61,North,-999,-999.0,-999.0,9,0.00,,,-99.99,0.0,Linux-Irox,2013-10-03 15:09:00,
2013-10-03 08:14:00,50.9,17.1,29.61,North,-999,-999.0,-999.0,6,0.00,,,-99.99,0.0,Linux-Irox,2013-10-03 15:14:00,
2013-10-03 08:16:00,51.1,17.2,29.59,North,-999,-999.0,-999.0,6,0.00,,,-99.99,0.0,Linux-Irox,2013-10-03 15:16:00,
2013-10-03 08:24:00,52.7,18.5,29.59,North,-999,-999.0,-999.0,5,0.00,,,-99.99,0.0,Linux-Irox,2013-10-03 15:24:00,
2013-10-03 08:31:00,53.8,19.6,29.59,North,-999,-999.0,-999.0,5,0.00,,,-99.99,0.0,Linux-Irox,2013-10-03 15:31:00,
2013-10-03 08:34:00,54.3,20.1,29.59,North,-999,-999.0,-999.0,5,0.00,,,-99.99,0.0,Linux-Irox,2013-10-03 15:34:00,
2013-10-03 08:44:00,56.5,22.3,29.61,North,-999,-999.0,-999.0,5,0.00,,,-99.99,0.0,Linux-Irox,2013-10-03 15:44:00,
2013-10-03 08:46:00,57.6,23.4,29.61,North,-999,-999.0,-999.0,5,0.00,,,-99.99,0.0,Linux-Irox,2013-10-03 15:46:00,
2013-10-03 08:54:00,59.7,25.5,29.61,North,-999,-999.0,-999.0,5,0.00,,,-99.99,0.0,Linux-Irox,2013-10-03 15:54:00,
2013-10-03 09:01:00,61.0,26.8,29.60,North,-999,-999.0,-999.0,5,0.00,,,-99.99,0.0,Linux-Irox,2013-10-03 16:01:00,
2013-10-03 09:04:00,61.5,27.3,29.60,North,-999,-999.0,-999.0,5,0.00,,,-99.99,0.0,Linux-Irox,2013-10-03 16:04:00,
2013-10-03 09:14:00,62.4,28.2,29.60,North,-999,-999.0,-999.0,5,0.00,,,-99.99,0.0,Linux-Irox,2013-10-03 16:14:00,
2013-10-03 09:16:00,61.9,27.7,29.60,North,-999,-999.0,-999.0,5,0.00,,,-99.99,0.0,Linux-Irox,2013-10-03 16:16:00,
2013-10-03 09:24:00,62.4,28.2,29.60,North,-999,-999.0,-999.0,5,0.00,,,-99.99,0.0,Linux-Irox,2013-10-03 16:24:00,
2013-10-03 09:31:00,62.8,28.6,29.60,North,-999,-999.0,-999.0,5,0.00,,,-99.99,0.0,Linux-Irox,2013-10-03 16:31:00,
2013-10-03 09:34:00,63.1,28.9,29.60,North,-999,-999.0,-999.0,5,0.00,,,-99.99,0.0,Linux-Irox,2013-10-03 16:34:00,
2013-10-03 09:44:00,64.6,30.4,29.61,North,-999,-999.0,-999.0,5,0.00,,,-99.99,0.0,Linux-Irox,2013-10-03 16:44:00,
2013-10-03 09:46:00,64.2,30.0,29.61,North,-999,-999.0,-999.0,5,0.00,,,-99.99,0.0,Linux-Irox,2013-10-03 16:46:00,
2013-10-03 09:54:00,64.2,30.0,29.61,North,-999,-999.0,-999.0,5,0.00,,,-99.99,0.0,Linux-Irox,2013-10-03 16:54:00,
2013-10-03 10:01:00,65.5,31.3,29.61,North,-999,-999.0,-999.0,5,0.00,,,-99.99,0.0,Linux-Irox,2013-10-03 17:01:00,
2013-10-03 10:04:00,66.2,32.0,29.61,North,-999,-999.0,-999.0,5,0.00,,,-99.99,0.0,Linux-Irox,2013-10-03 17:04:00,
2013-10-03 10:14:00,65.3,31.1,29.61,North,-999,-999.0,-999.0,5,0.00,,,-99.99,0.0,Linux-Irox,2013-10-03 17:14:00,
2013-10-03 10:16:00,65.5,31.3,29.61,North,-999,-999.0,-999.0,5,0.00,,,-99.99,0.0,Linux-Irox,2013-10-03 17:16:00,
2013-10-03 10:24:00,64.8,30.6,29.61,North,-999,-999.0,-999.0,5,0.00,,,-99.99,0.0,Linux-Irox,2013-10-03 17:24:00,
2013-10-03 10:31:00,64.8,30.6,29.61,North,-999,-999.0,-999.0,5,0.00,,,-99.99,0.0,Linux-Irox,2013-10-03 17:31:00,
2013-10-03 10:34:00,64.2,30.0,29.61,North,-999,-999.0,-999.0,5,0.00,,,-99.99,0.0,Linux-Irox,2013-10-03 17:34:00,
2013-10-03 10:44:00,63.0,28.8,29.59,North,-999,-999.0,-999.0,5,0.00,,,-99.99,0.0,Linux-Irox,2013-10-03 17:44:00,
2013-10-03 10:46:00,63.9,29.7,29.59,North,-999,-999.0,-999.0,5,0.00,,,-99.99,0.0,Linux-Irox,2013-10-03 17:46:00,
2013-10-03 10:54:00,64.8,30.6,29.59,North,-999,-999.0,-999.0,5,0.00,,,-99.99,0.0,Linux-Irox,2013-10-03 17:54:00,
2013-10-03 11:01:00,65.7,31.5,29.59,North,-999,-999.0,-999.0,5,0.00,,,-99.99,0.0,Linux-Irox,2013-10-03 18:01:00,
2013-10-03 11:04:00,66.2,32.0,29.59,North,-999,-999.0,-999.0,5,0.00,,,-99.99,0.0,Linux-Irox,2013-10-03 18:04:00,
2013-10-03 11:14:00,68.0,33.8,29.59,North,-999,-999.0,-999.0,5,0.00,,,-99.99,0.0,Linux-Irox,2013-10-03 18:14:00,
2013-10-03 11:16:00,67.8,33.6,29.58,North,-999,-999.0,-999.0,5,0.00,,,-99.99,0.0,Linux-Irox,2013-10-03 18:16:00,
2013-10-03 11:24:00,68.4,34.2,29.58,North,-999,-999.0,-999.0,5,0.00,,,-99.99,0.0,Linux-Irox,2013-10-03 18:24:00,
2013-10-03 11:31:00,67.1,32.9,29.58,North,-999,-999.0,-999.0,5,0.00,,,-99.99,0.0,Linux-Irox,2013-10-03 18:31:00,
2013-10-03 11:34:00,66.9,32.7,29.58,North,-999,-999.0,-999.0,5,0.00,,,-99.99,0.0,Linux-Irox,2013-10-03 18:34:00,
2013-10-03 11:44:00,69.3,35.1,29.58,North,-999,-999.0,-999.0,5,0.00,,,-99.99,0.0,Linux-Irox,2013-10-03 18:44:00,
2013-10-03 11:46:00,69.6,35.4,29.58,North,-999,-999.0,-999.0,5,0.00,,,-99.99,0.0,Linux-Irox,2013-10-03 18:46:00,
2013-10-03 11:54:00,70.2,36.0,29.58,North,-999,-999.0,-999.0,5,0.00,,,-99.99,0.0,Linux-Irox,2013-10-03 18:54:00,
2013-10-03 12:01:00,67.6,33.4,29.58,North,-999,-999.0,-999.0,5,0.00,,,-99.99,0.0,Linux-Irox,2013-10-03 19:01:00,
2013-10-03 12:04:00,67.6,33.4,29.58,North,-999,-999.0,-999.0,5,0.00,,,-99.99,0.0,Linux-Irox,2013-10-03 19:04:00,
2013-10-03 12:14:00,68.7,34.5,29.58,North,-999,-999.0,-999.0,5,0.00,,,-99.99,0.0,Linux-Irox,2013-10-03 19:14:00,
2013-10-03 12:16:00,69.4,35.2,29.57,North,-999,-999.0,-999.0,5,0.00,,,-99.99,0.0,Linux-Irox,2013-10-03 19:16:00,
2013-10-03 12:24:00,69.8,35.6,29.57,North,-999,-999.0,-999.0,5,0.00,,,-99.99,0.0,Linux-Irox,2013-10-03 19:24:00,
2013-10-03 12:31:00,69.8,35.6,29.57,North,-999,-999.0,-999.0,5,0.00,,,-99.99,0.0,Linux-Irox,2013-10-03 19:31:00,
2013-10-03 12:34:00,68.9,34.7,29.57,North,-999,-999.0,-999.0,5,0.00,,,-99.99,0.0,Linux-Irox,2013-10-03 19:34:00,
2013-10-03 12:44:00,69.1,34.9,29.56,North,-999,-999.0,-999.0,5,0.00,,,-99.99,0.0,Linux-Irox,2013-10-03 19:44:00,
2013-10-03 12:46:00,69.6,35.4,29.56,North,-999,-999.0,-999.0,5,0.00,,,-99.99,0.0,Linux-Irox,2013-10-03 19:46:00,
2013-10-03 12:54:00,69.8,35.6,29.56,North,-999,-999.0,-999.0,5,0.00,,,-99.99,0.0,Linux-Irox,2013-10-03 19:54:00,
2013-10-03 13:01:00,70.9,36.7,29.55,North,-999,-999.0,-999.0,5,0.00,,,-99.99,0.0,Linux-Irox,2013-10-03 20:01:00,
2013-10-03 13:04:00,71.6,37.4,29.55,North,-999,-999.0,-999.0,5,0.00,,,-99.99,0.0,Linux-Irox,2013-10-03 20:04:00,
2013-10-03 13:14:00,70.7,36.5,29.55,North,-999,-999.0,-999.0,5,0.00,,,-99.99,0.0,Linux-Irox,2013-10-03 20:14:00,
2013-10-03 13:16:00,70.5,36.3,29.53,North,-999,-999.0,-999.0,5,0.00,,,-99.99,0.0,Linux-Irox,2013-10-03 20:16:00,
2013-10-03 13:24:00,71.1,36.9,29.53,North,-999,-999.0,-999.0,5,0.00,,,-99.99,0.0,Linux-Irox,2013-10-03 20:24:00,
2013-10-03 13:31:00,71.6,37.4,29.53,North,-999,-999.0,-999.0,5,0.00,,,-99.99,0.0,Linux-Irox,2013-10-03 20:31:00,
2013-10-03 13:34:00,71.4,37.2,29.53,North,-999,-999.0,-999.0,5,0.00,,,-99.99,0.0,Linux-Irox,2013-10-03 20:34:00,
2013-10-03 13:44:00,72.7,38.5,29.53,North,-999,-999.0,-999.0,5,0.00,,,-99.99,0.0,Linux-Irox,2013-10-03 20:44:00,
2013-10-03 13:46:00,72.7,38.5,29.53,North,-999,-999.0,-999.0,5,0.00,,,-99.99,0.0,Linux-Irox,2013-10-03 20:46:00,
2013-10-03 13:54:00,72.9,38.7,29.53,North,-999,-999.0,-999.0,5,0.00,,,-99.99,0.0,Linux-Irox,2013-10-03 20:54:00,
2013-10-03 14:01:00,72.1,37.9,29.52,North,-999,-999.0,-999.0,5,0.00,,,-99.99,0.0,Linux-Irox,2013-10-03 21:01:00,
2013-10-03 14:04:00,73.0,38.8,29.52,North,-999,-999.0,-999.0,5,0.00,,,-99.99,0.0,Linux-Irox,2013-10-03 21:04:00,
2013-10-03 14:14:00,74.7,40.5,29.52,North,-999,-999.0,-999.0,5,0.00,,,-99.99,0.0,Linux-Irox,2013-10-03 21:14:00,
2013-10-03 14:16:00,74.8,40.6,29.52,North,-999,-999.0,-999.0,5,0.00,,,-99.99,0.0,Linux-Irox,2013-10-03 21:16:00,
2013-10-03 14:24:00,74.1,39.9,29.52,North,-999,-999.0,-999.0,5,0.00,,,-99.99,0.0,Linux-Irox,2013-10-03 21:24:00,
2013-10-03 14:31:00,75.2,41.0,29.52,North,-999,-999.0,-999.0,5,0.00,,,-99.99,0.0,Linux-Irox,2013-10-03 21:31:00,
2013-10-03 14:34:00,75.2,41.0,29.52,North,-999,-999.0,-999.0,5,0.00,,,-99.99,0.0,Linux-Irox,2013-10-03 21:34:00,
2013-10-03 14:44:00,75.2,41.0,29.52,North,-999,-999.0,-999.0,5,0.00,,,-99.99,0.0,Linux-Irox,2013-10-03 21:44:00,
2013-10-03 14:46:00,75.0,40.8,29.52,North,-999,-999.0,-999.0,5,0.00,,,-99.99,0.0,Linux-Irox,2013-10-03 21:46:00,
2013-10-03 14:54:00,74.8,40.6,29.52,North,-999,-999.0,-999.0,5,0.00,,,-99.99,0.0,Linux-Irox,2013-10-03 21:54:00,
2013-10-03 15:01:00,74.5,40.3,29.51,North,-999,-999.0,-999.0,5,0.00,,,-99.99,0.0,Linux-Irox,2013-10-03 22:01:00,
2013-10-03 15:04:00,75.0,40.8,29.51,North,-999,-999.0,-999.0,5,0.00,,,-99.99,0.0,Linux-Irox,2013-10-03 22:04:00,
2013-10-03 15:14:00,74.5,40.3,29.51,North,-999,-999.0,-999.0,5,0.00,,,-99.99,0.0,Linux-Irox,2013-10-03 22:14:00,
2013-10-03 15:16:00,74.5,40.3,29.49,North,-999,-999.0,-999.0,5,0.00,,,-99.99,0.0,Linux-Irox,2013-10-03 22:16:00,
2013-10-03 15:24:00,75.2,41.0,29.49,North,-999,-999.0,-999.0,5,0.00,,,-99.99,0.0,Linux-Irox,2013-10-03 22:24:00,
2013-10-03 15:31:00,74.7,40.5,29.49,North,-999,-999.0,-999.0,5,0.00,,,-99.99,0.0,Linux-Irox,2013-10-03 22:31:00,
2013-10-03 15:34:00,74.1,39.9,29.49,North,-999,-999.0,-999.0,5,0.00,,,-99.99,0.0,Linux-Irox,2013-10-03 22:34:00,
2013-10-03 15:44:00,73.2,39.0,29.45,North,-999,-999.0,-999.0,5,0.00,,,-99.99,0.0,Linux-Irox,2013-10-03 22:44:00,
2013-10-03 15:46:00,73.2,39.0,29.45,North,-999,-999.0,-999.0,5,0.00,,,-99.99,0.0,Linux-Irox,2013-10-03 22:46:00,
2013-10-03 15:54:00,73.2,39.0,29.45,North,-999,-999.0,-999.0,5,0.00,,,-99.99,0.0,Linux-Irox,2013-10-03 22:54:00,
2013-10-03 16:01:00,72.9,38.7,29.45,North,-999,-999.0,-999.0,5,0.00,,,-99.99,0.0,Linux-Irox,2013-10-03 23:01:00,
2013-10-03 16:04:00,72.9,38.7,29.45,North,-999,-999.0,-999.0,5,0.00,,,-99.99,0.0,Linux-Irox,2013-10-03 23:04:00,
2013-10-03 16:14:00,73.0,38.8,29.45,North,-999,-999.0,-999.0,5,0.00,,,-99.99,0.0,Linux-Irox,2013-10-03 23:14:00,
2013-10-03 16:16:00,72.9,38.7,29.48,North,-999,-999.0,-999.0,5,0.00,,,-99.99,0.0,Linux-Irox,2013-10-03 23:16:00,
2013-10-03 16:24:00,72.7,38.5,29.48,North,-999,-999.0,-999.0,5,0.00,,,-99.99,0.0,Linux-Irox,2013-10-03 23:24:00,
2013-10-03 16:31:00,72.5,38.3,29.48,North,-999,-999.0,-999.0,5,0.00,,,-99.99,0.0,Linux-Irox,2013-10-03 23:31:00,
2013-10-03 16:34:00,72.3,38.1,29.48,North,-999,-999.0,-999.0,5,0.00,,,-99.99,0.0,Linux-Irox,2013-10-03 23:34:00,
2013-10-03 16:44:00,71.8,37.6,29.47,North,-999,-999.0,-999.0,5,0.00,,,-99.99,0.0,Linux-Irox,2013-10-03 23:44:00,
2013-10-03 16:46:00,71.8,37.6,29.47,North,-999,-999.0,-999.0,5,0.00,,,-99.99,0.0,Linux-Irox,2013-10-03 23:46:00,
2013-10-03 16:54:00,71.4,37.2,29.47,North,-999,-999.0,-999.0,5,0.00,,,-99.99,0.0,Linux-Irox,2013-10-03 23:54:00,
2013-10-03 17:01:00,71.2,37.0,29.48,North,-999,-999.0,-999.0,5,0.00,,,-99.99,0.0,Linux-Irox,2013-10-04 00:01:00,
2013-10-03 17:04:00,71.1,36.9,29.48,North,-999,-999.0,-999.0,5,0.00,,,-99.99,0.0,Linux-Irox,2013-10-04 00:04:00,
2013-10-03 17:14:00,71.1,36.9,29.48,North,-999,-999.0,-999.0,5,0.00,,,-99.99,0.0,Linux-Irox,2013-10-04 00:14:00,
2013-10-03 17:16:00,70.9,36.7,29.49,North,-999,-999.0,-999.0,5,0.00,,,-99.99,0.0,Linux-Irox,2013-10-04 00:16:00,
2013-10-03 17:24:00,70.5,36.3,29.49,North,-999,-999.0,-999.0,5,0.00,,,-99.99,0.0,Linux-Irox,2013-10-04 00:24:00,
2013-10-03 17:31:00,70.2,36.0,29.49,North,-999,-999.0,-999.0,5,0.00,,,-99.99,0.0,Linux-Irox,2013-10-04 00:31:00,
2013-10-03 17:34:00,69.8,35.6,29.49,North,-999,-999.0,-999.0,5,0.00,,,-99.99,0.0,Linux-Irox,2013-10-04 00:34:00,
2013-10-03 17:44:00,69.3,35.1,29.49,North,-999,-999.0,-999.0,5,0.00,,,-99.99,0.0,Linux-Irox,2013-10-04 00:44:00,
2013-10-03 17:46:00,69.3,35.1,29.49,North,-999,-999.0,-999.0,5,0.00,,,-99.99,0.0,Linux-Irox,2013-10-04 00:46:00,
2013-10-03 17:54:00,69.1,34.9,29.49,North,-999,-999.0,-999.0,5,0.00,,,-99.99,0.0,Linux-Irox,2013-10-04 00:54:00,
2013-10-03 18:01:00,68.5,34.3,29.50,North,-999,-999.0,-999.0,5,0.00,,,-99.99,0.0,Linux-Irox,2013-10-04 01:01:00,
2013-10-03 18:04:00,68.5,34.3,29.50,North,-999,-999.0,-999.0,5,0.00,,,-99.99,0.0,Linux-Irox,2013-10-04 01:04:00,
2013-10-03 18:14:00,68.0,33.8,29.50,North,-999,-999.0,-999.0,5,0.00,,,-99.99,0.0,Linux-Irox,2013-10-04 01:14:00,
2013-10-03 18:16:00,67.8,33.6,29.51,North,-999,-999.0,-999.0,5,0.00,,,-99.99,0.0,Linux-Irox,2013-10-04 01:16:00,
2013-10-03 18:24:00,66.9,32.7,29.51,North,-999,-999.0,-999.0,5,0.00,,,-99.99,0.0,Linux-Irox,2013-10-04 01:24:00,
2013-10-03 18:31:00,67.1,32.9,29.51,North,-999,-999.0,-999.0,5,0.00,,,-99.99,0.0,Linux-Irox,2013-10-04 01:31:00,
2013-10-03 18:34:00,67.1,32.9,29.51,North,-999,-999.0,-999.0,5,0.00,,,-99.99,0.0,Linux-Irox,2013-10-04 01:34:00,
2013-10-03 18:44:00,66.4,32.2,29.52,North,-999,-999.0,-999.0,5,0.00,,,-99.99,0.0,Linux-Irox,2013-10-04 01:44:00,
2013-10-03 18:46:00,66.0,31.8,29.52,North,-999,-999.0,-999.0,5,0.00,,,-99.99,0.0,Linux-Irox,2013-10-04 01:46:00,
2013-10-03 18:54:00,66.4,32.2,29.52,North,-999,-999.0,-999.0,5,0.00,,,-99.99,0.0,Linux-Irox,2013-10-04 01:54:00,
2013-10-03 19:01:00,66.2,32.0,29.53,North,-999,-999.0,-999.0,5,0.00,,,-99.99,0.0,Linux-Irox,2013-10-04 02:01:00,
2013-10-03 19:04:00,66.2,32.0,29.53,North,-999,-999.0,-999.0,5,0.00,,,-99.99,0.0,Linux-Irox,2013-10-04 02:04:00,
2013-10-03 19:14:00,66.2,32.0,29.53,North,-999,-999.0,-999.0,5,0.00,,,-99.99,0.0,Linux-Irox,2013-10-04 02:14:00,
2013-10-03 19:16:00,66.2,32.0,29.54,North,-999,-999.0,-999.0,5,0.00,,,-99.99,0.0,Linux-Irox,2013-10-04 02:16:00,
2013-10-03 19:24:00,65.5,31.3,29.54,North,-999,-999.0,-999.0,5,0.00,,,-99.99,0.0,Linux-Irox,2013-10-04 02:24:00,
2013-10-03 19:31:00,65.1,30.9,29.54,North,-999,-999.0,-999.0,5,0.00,,,-99.99,0.0,Linux-Irox,2013-10-04 02:31:00,
2013-10-03 19:34:00,64.2,30.0,29.54,North,-999,-999.0,-999.0,5,0.00,,,-99.99,0.0,Linux-Irox,2013-10-04 02:34:00,
2013-10-03 19:44:00,63.9,29.7,29.56,North,-999,-999.0,-999.0,5,0.00,,,-99.99,0.0,Linux-Irox,2013-10-04 02:44:00,
2013-10-03 19:46:00,63.7,29.5,29.56,North,-999,-999.0,-999.0,5,0.00,,,-99.99,0.0,Linux-Irox,2013-10-04 02:46:00,
2013-10-03 19:54:00,63.5,29.3,29.56,North,-999,-999.0,-999.0,5,0.00,,,-99.99,0.0,Linux-Irox,2013-10-04 02:54:00,
2013-10-03 20:01:00,62.8,28.6,29.57,North,-999,-999.0,-999.0,5,0.00,,,-99.99,0.0,Linux-Irox,2013-10-04 03:01:00,
2013-10-03 20:04:00,62.6,28.4,29.57,North,-999,-999.0,-999.0,5,0.00,,,-99.99,0.0,Linux-Irox,2013-10-04 03:04:00,
2013-10-03 20:14:00,62.2,28.0,29.57,North,-999,-999.0,-999.0,5,0.00,,,-99.99,0.0,Linux-Irox,2013-10-04 03:14:00,
2013-10-03 20:16:00,62.1,27.9,29.58,North,-999,-999.0,-999.0,5,0.00,,,-99.99,0.0,Linux-Irox,2013-10-04 03:16:00,
2013-10-03 20:24:00,61.9,27.7,29.58,North,-999,-999.0,-999.0,5,0.00,,,-99.99,0.0,Linux-Irox,2013-10-04 03:24:00,
2013-10-03 20:34:00,61.7,27.5,29.58,North,-999,-999.0,-999.0,5,0.00,,,-99.99,0.0,Linux-Irox,2013-10-04 03:34:00,
2013-10-03 20:44:00,61.7,27.5,29.59,North,-999,-999.0,-999.0,5,0.00,,,-99.99,0.0,Linux-Irox,2013-10-04 03:44:00,
2013-10-03 20:54:00,61.0,26.8,29.59,North,-999,-999.0,-999.0,5,0.00,,,-99.99,0.0,Linux-Irox,2013-10-04 03:54:00,
2013-10-03 21:04:00,60.8,26.6,29.58,North,-999,-999.0,-999.0,5,0.00,,,-99.99,0.0,Linux-Irox,2013-10-04 04:04:00,
2013-10-03 21:14:00,60.4,26.2,29.58,North,-999,-999.0,-999.0,5,0.00,,,-99.99,0.0,Linux-Irox,2013-10-04 04:14:00,
2013-10-03 21:24:00,60.1,25.9,29.59,North,-999,-999.0,-999.0,5,0.00,,,-99.99,0.0,Linux-Irox,2013-10-04 04:24:00,
2013-10-03 21:34:00,59.9,25.7,29.59,North,-999,-999.0,-999.0,5,0.00,,,-99.99,0.0,Linux-Irox,2013-10-04 04:34:00,
2013-10-03 21:44:00,60.4,26.2,29.59,North,-999,-999.0,-999.0,5,0.00,,,-99.99,0.0,Linux-Irox,2013-10-04 04:44:00,
2013-10-03 21:54:00,60.3,26.1,29.59,North,-999,-999.0,-999.0,5,0.00,,,-99.99,0.0,Linux-Irox,2013-10-04 04:54:00,
2013-10-03 22:04:00,60.1,25.9,29.59,North,-999,-999.0,-999.0,5,0.00,,,-99.99,0.0,Linux-Irox,2013-10-04 05:04:00,
2013-10-03 22:14:00,60.3,26.1,29.59,North,-999,-999.0,-999.0,5,0.00,,,-99.99,0.0,Linux-Irox,2013-10-04 05:14:00,
2013-10-03 22:24:00,59.7,25.5,29.59,North,-999,-999.0,-999.0,5,0.00,,,-99.99,0.0,Linux-Irox,2013-10-04 05:24:00,
2013-10-03 22:34:00,59.7,25.5,29.59,North,-999,-999.0,-999.0,5,0.00,,,-99.99,0.0,Linux-Irox,2013-10-04 05:34:00,
2013-10-03 22:44:00,59.5,25.3,29.57,North,-999,-999.0,-999.0,5,0.00,,,-99.99,0.0,Linux-Irox,2013-10-04 05:44:00,
2013-10-03 22:54:00,59.0,24.8,29.57,North,-999,-999.0,-999.0,5,0.00,,,-99.99,0.0,Linux-Irox,2013-10-04 05:54:00,
2013-10-03 23:04:00,59.4,25.2,29.57,North,-999,-999.0,-999.0,5,0.00,,,-99.99,0.0,Linux-Irox,2013-10-04 06:04:00,
2013-10-03 23:14:00,59.4,25.2,29.57,North,-999,-999.0,-999.0,5,0.00,,,-99.99,0.0,Linux-Irox,2013-10-04 06:14:00,
2013-10-03 23:24:00,58.8,24.6,29.58,North,-999,-999.0,-999.0,5,0.00,,,-99.99,0.0,Linux-Irox,2013-10-04 06:24:00,
2013-10-03 23:34:00,59.0,24.8,29.58,North,-999,-999.0,-999.0,5,0.00,,,-99.99,0.0,Linux-Irox,2013-10-04 06:34:00,
2013-10-03 23:44:00,59.4,25.2,29.59,North,-999,-999.0,-999.0,5,0.00,,,-99.99,0.0,Linux-Irox,2013-10-04 06:44:00,
2013-10-03 23:54:00,59.7,25.5,29.59,North,-999,-999.0,-999.0,5,0.00,,,-99.99,0.0,Linux-Irox,2013-10-04 06:54:00,